Regional Weather Roundup
Issued by NWS

Home | Current Version | Previous Version | Text Only | Print | Product List | Glossary Off
Versions: 1 2 3 4 5 6 7 8 9 10 11 12 13 14 15 16 17 18 19 20 21 22 23 24 25 26 27 28 29 30 31 32 33 34 35 36 37 38 39 40 41 42 43 44 45 46 47 48 49 50

000
ASUS43 KTOP 201859
RWRKS

WEATHER ROUNDUP FOR KANSAS
NATIONAL WEATHER SERVICE GOODLAND KS
200 PM CDT FRI OCT 20 2017

NOTE:  "FAIR" INDICATES FEW OR NO CLOUDS BELOW 12,000 FEET WITH NO
SIGNIFICANT WEATHER AND/OR OBSTRUCTIONS TO VISIBILITY.

KSZ001>006-013>018-027>032-041>047-202000-
NORTHWEST KANSAS

CITY           SKY/WX    TMP DP  RH WIND       PRES   REMARKS
GOODLAND       CLOUDY    75  47  36 S21G26    29.62F
HAYS           SUNNY     76  56  49 S23G39    29.72F
HILL CITY      SUNNY     78  54  43 S24G43    29.65F
RUSSELL        SUNNY     72  59  63 S26G39    29.73F
$$

KSZ061>065-074>080-084>089-202000-
SOUTHWEST KANSAS

CITY           SKY/WX    TMP DP  RH WIND       PRES   REMARKS
DODGE CITY     MOSUNNY   77  55  46 S31G41    29.76F
ELKHART          N/A     76  49  38 S20         N/A
GARDEN CITY    SUNNY     76  51  41 S28G40    29.71F
GREAT BEND     MOSUNNY   73  59  61 S33       29.76F
LIBERAL        SUNNY     76  54  46 S28G37    29.74F
$$

KSZ066>073-081>083-090>101-202000-
SOUTHEAST KANSAS

CITY           SKY/WX    TMP DP  RH WIND       PRES   REMARKS
CHANUTE        MOSUNNY   75  59  57 S17G24    29.97F
COFFEYVILLE    MOSUNNY   74  59  59 S23G32    29.99F
HUTCHINSON     PTSUNNY   76  61  59 S29G40    29.82F
MEDICINE LODGE   N/A     76  58  53 S23G33    29.81F
NEWTON         SUNNY     77  59  53 S30G41    29.83F
PARSONS        MOSUNNY   75  58  55 S13G25    29.99F
WICHITA INTL   MOSUNNY   77  60  55 S26G39    29.85F
WICHITA JABRA  SUNNY     77  60  55 S29G36    29.85F
WICHITA MCCONL SUNNY     77  57  50 S26G40    29.86F
WINFIELD       SUNNY     76  60  57 S25G36    29.90F
$$

KSZ007>012-019>026-033>040-048>060-102>105-202000-
NORTHEAST KANSAS

CITY           SKY/WX    TMP DP  RH WIND       PRES   REMARKS
CONCORDIA      SUNNY     75  60  59 S23G38    29.76F
EMPORIA        SUNNY     75  58  55 S28G33    29.90F
LAWRENCE       SUNNY     75  60  59 S24G33    29.93F
MANHATTAN      PTSUNNY   78  61  55 S22G35    29.82F
OLATHE IND     MOSUNNY   73  58  59 S18       29.97F
OLATHE EXE     MOSUNNY   71  59  65 S21       29.97F
SALINA         MOSUNNY   78  61  55 S24G41    29.79F
TOPEKA BILLARD CLOUDY    76  61  59 S21G30    29.90F
TOPEKA FORBES  CLOUDY    75  60  59 S22G32    29.90F
$$




USA.gov is the U.S. government's official web portal to all federal, state and local government web resources and services.